time_stamp(utc),avg(mph),gust(mph),direction(deg),12m_air_temp(f),sonic_u(cm/s),sonic_v(cm/s),sonic_w(cm/s),pressure,2m_air_temp(f),pyranometer(W/m^2)
"2021-05-26 00:02:39+00",14.5,18.5,,61.4,-164,-613,-1,1021.72,61.6,0
"2021-05-26 00:07:39+00",13.0,15.0,,61.3,-122,-549,-21,1021.79,61.4,0
"2021-05-26 00:12:39+00",12.8,14.8,,61.2,-100,-540,-13,1021.71,61.3,0
"2021-05-26 00:17:39+00",10.9,14.9,,61.2,-138,-474,1,1021.65,61.2,0
"2021-05-26 00:22:39+00",11.9,14.9,,61.1,-139,-500,5,1021.77,61.1,0
"2021-05-26 00:27:39+00",11.1,14.1,,61.2,-151,-472,-2,1021.72,61.1,0
"2021-05-26 00:32:39+00",11.7,14.7,,61.2,-154,-486,-10,1021.77,61.1,0
"2021-05-26 00:37:39+00",12.5,15.5,,61.2,-185,-515,-15,1021.74,61.1,0
"2021-05-26 00:42:39+00",13.6,15.6,,61.2,-193,-563,-18,1021.65,61.1,0
"2021-05-26 00:47:39+00",11.6,13.6,,61.2,-144,-486,5,1021.72,61.1,0
"2021-05-26 00:52:39+00",10.8,13.8,,61.3,-131,-450,11,1021.7,61.1,0
"2021-05-26 00:57:39+00",12.7,15.7,,61.3,-209,-524,2,1021.6,61.2,0
"2021-05-26 01:02:39+00",13.7,15.7,,61.3,-194,-582,-12,1021.62,61.2,0
"2021-05-26 01:07:39+00",14.6,17.6,,61.3,-227,-583,-10,1021.64,61.2,0
"2021-05-26 01:12:39+00",12.9,15.9,,61.3,-173,-531,-7,1021.65,61.2,0
"2021-05-26 01:17:39+00",12.6,14.6,,61.3,-179,-528,-6,1021.7,61.2,0
"2021-05-26 01:22:39+00",12.0,15.0,,61.3,-184,-489,3,1021.72,61.2,0
"2021-05-26 01:27:39+00",12.5,14.5,,61.3,-178,-517,-7,1021.71,61.2,0
"2021-05-26 01:32:39+00",11.1,14.1,,61.4,-158,-458,1,1021.8,61.2,0
"2021-05-26 01:37:39+00",11.1,13.1,,61.4,-181,-463,2,1021.89,61.2,0
"2021-05-26 01:42:39+00",12.0,13.0,,61.5,-220,-486,-4,1021.86,61.3,0
"2021-05-26 01:47:39+00",13.5,15.5,,61.7,-253,-542,-4,1021.86,61.4,0
"2021-05-26 01:52:39+00",13.5,15.5,,61.8,-198,-546,-4,1021.75,61.5,0
"2021-05-26 01:57:39+00",11.6,13.6,,61.9,-193,-483,2,1021.78,61.6,0
"2021-05-26 02:02:39+00",13.2,15.2,,61.9,-197,-544,1,1021.77,61.6,0
"2021-05-26 02:07:39+00",14.1,16.1,,62,-213,-572,-3,1021.74,61.6,0
"2021-05-26 02:12:39+00",13.7,16.7,,61.9,-196,-558,-6,1021.8,61.6,0
"2021-05-26 02:17:39+00",12.3,14.3,,61.9,-237,-496,2,1021.82,61.6,0
"2021-05-26 02:22:39+00",12.4,14.4,,62,-261,-493,-8,1021.89,61.7,0
"2021-05-26 02:27:39+00",12.5,14.5,,62.1,-241,-504,5,1021.73,61.7,0
"2021-05-26 02:32:39+00",14.9,16.9,,62.2,-243,-600,-12,1021.64,61.8,0
"2021-05-26 02:37:39+00",12.8,15.8,,62.4,-191,-528,-9,1021.6,61.9,0
"2021-05-26 02:42:39+00",12.1,14.1,,62.5,-164,-493,-10,1021.71,62.1,0
"2021-05-26 02:47:39+00",12.1,15.1,,62.7,-184,-500,-4,1021.64,62.3,0
"2021-05-26 02:52:39+00",12.3,16.3,,62.7,-154,-506,-15,1021.57,62.5,0
"2021-05-26 02:57:39+00",15.0,19.0,,62.5,-203,-633,-11,1021.58,62.5,0
"2021-05-26 03:02:39+00",12.7,17.7,,62.4,-155,-527,2,1021.6,62.4,0
"2021-05-26 03:07:39+00",12.4,14.4,,62.5,-136,-525,-10,1021.64,62.4,0
"2021-05-26 03:12:39+00",14.1,18.1,,62.7,-287,-574,0,1021.62,62.6,0
"2021-05-26 03:17:39+00",12.9,14.9,,63.1,-331,-495,7,1021.67,62.8,0
"2021-05-26 03:22:39+00",14.2,17.2,,63.4,-352,-559,13,1021.62,63.1,0
"2021-05-26 03:27:39+00",16.1,19.1,,63.4,-458,-607,11,1021.63,63.2,0
"2021-05-26 03:32:39+00",14.5,16.5,,63.4,-406,-527,-1,1021.6,63.2,0
"2021-05-26 03:37:39+00",12.9,14.9,,63.2,-329,-512,21,1021.66,63.2,0
"2021-05-26 03:42:39+00",13.5,16.5,,63,-336,-533,18,1021.56,63,0
"2021-05-26 03:47:39+00",14.2,16.2,,62.8,-338,-556,5,1021.45,62.9,0
"2021-05-26 03:52:39+00",13.8,16.8,,62.8,-355,-535,12,1021.4,62.8,0
"2021-05-26 03:57:39+00",15.2,17.2,,62.8,-418,-586,3,1021.36,62.8,0
"2021-05-26 04:02:39+00",13.4,15.4,,62.8,-327,-529,16,1021.23,62.9,0
"2021-05-26 04:07:39+00",14.0,17.0,,62.8,-351,-538,21,1021.19,62.8,0
"2021-05-26 04:12:39+00",13.1,15.1,,62.8,-323,-510,11,1021.06,62.8,0
"2021-05-26 04:17:39+00",13.2,14.2,,62.8,-282,-529,7,1020.96,62.8,0
"2021-05-26 04:22:39+00",15.0,18.0,,62.8,-348,-610,-4,1020.98,62.8,0
"2021-05-26 04:27:39+00",11.4,14.4,,62.8,-301,-430,17,1020.98,62.9,0
"2021-05-26 04:32:39+00",11.6,14.6,,62.8,-259,-469,10,1020.9,62.9,0
"2021-05-26 04:37:39+00",10.8,12.8,,62.8,-198,-439,4,1020.9,62.8,0
"2021-05-26 04:42:39+00",12.6,14.6,,62.5,-184,-536,-13,1020.72,62.6,0
"2021-05-26 04:47:39+00",14.5,16.5,,62.3,-191,-587,-14,1020.71,62.5,0
"2021-05-26 04:52:39+00",13.1,16.1,,62.2,-183,-550,-13,1020.63,62.3,0
"2021-05-26 04:57:39+00",11.1,13.1,,62.3,-202,-459,13,1020.62,62.3,0
"2021-05-26 05:02:39+00",11.1,14.1,,62.6,-282,-438,18,1020.67,62.5,0
"2021-05-26 05:07:39+00",9.6,11.6,,62.7,-186,-386,0,1020.61,62.6,0
"2021-05-26 05:12:39+00",8.8,10.8,,62.6,-130,-358,-2,1020.49,62.6,0
"2021-05-26 05:17:39+00",10.5,13.5,,62.6,-153,-423,-3,1020.42,62.5,0
"2021-05-26 05:22:39+00",11.9,13.9,,62.5,-230,-486,-4,1020.45,62.4,0
"2021-05-26 05:27:39+00",11.0,15.0,,62.4,-226,-455,10,1020.51,62.4,0
"2021-05-26 05:32:39+00",11.3,13.3,,62.3,-224,-457,-6,1020.53,62.3,0
"2021-05-26 05:37:39+00",12.3,15.3,,62.5,-363,-426,10,1020.56,62.4,0
"2021-05-26 05:42:39+00",13.5,17.5,,62.6,-370,-461,1,1020.56,62.5,0
"2021-05-26 05:47:39+00",12.8,15.8,,62.6,-382,-441,9,1020.48,62.6,0
"2021-05-26 05:52:39+00",11.3,12.3,,62.5,-304,-420,8,1020.45,62.5,0
"2021-05-26 05:57:39+00",14.4,16.4,,62.5,-410,-496,-24,1020.41,62.5,0
"2021-05-26 06:02:39+00",11.9,14.9,,62.5,-378,-374,24,1020.35,62.5,0
"2021-05-26 06:07:39+00",14.1,17.1,,62.4,-358,-537,-6,1020.18,62.5,0
"2021-05-26 06:12:39+00",15.5,17.5,,62.2,-455,-531,4,1020.25,62.3,0
"2021-05-26 06:17:39+00",12.0,15.0,,62.3,-363,-388,45,1020.19,62.3,0
"2021-05-26 06:22:39+00",14.3,18.3,,62.1,-472,-421,30,1020.17,62.3,0
"2021-05-26 06:27:39+00",11.0,13.0,,62.1,-349,-349,37,1020.18,62.2,0
"2021-05-26 06:32:39+00",13.0,15.0,,62,-356,-477,-5,1020.13,62.2,0
"2021-05-26 06:37:39+00",13.4,14.4,,61.9,-387,-476,10,1020.02,62.1,0
"2021-05-26 06:42:39+00",11.8,13.8,,61.9,-307,-447,20,1020.09,62.1,0
"2021-05-26 06:47:39+00",12.3,14.3,,61.8,-334,-475,9,1020.15,62,0
"2021-05-26 06:52:39+00",12.1,14.1,,61.8,-336,-443,0,1020.12,62,0
"2021-05-26 06:57:39+00",11.1,14.1,,61.8,-272,-427,6,1019.97,61.9,0
"2021-05-26 07:02:39+00",9.1,11.1,,61.7,-230,-352,12,1019.96,61.9,0
"2021-05-26 07:07:39+00",11.6,13.6,,61.6,-322,-433,19,1019.94,61.8,0
"2021-05-26 07:12:39+00",13.1,15.1,,61.5,-377,-497,9,1019.94,61.7,0
"2021-05-26 07:17:39+00",13.4,16.4,,61.3,-380,-474,9,1020,61.6,0
"2021-05-26 07:22:39+00",12.2,15.2,,61.3,-356,-437,14,1020.01,61.5,0
"2021-05-26 07:27:39+00",11.5,14.5,,61.3,-302,-428,13,1020.03,61.5,0
"2021-05-26 07:32:39+00",12.6,13.6,,61.2,-307,-486,5,1019.97,61.4,0
"2021-05-26 07:37:39+00",9.8,11.8,,61.3,-257,-358,3,1020.04,61.4,0
"2021-05-26 07:42:39+00",12.2,14.2,,61.2,-328,-447,12,1020.09,61.4,0
"2021-05-26 07:47:39+00",12.1,14.1,,61.2,-321,-453,-2,1020.06,61.3,0
"2021-05-26 07:52:39+00",11.7,12.7,,61.3,-334,-388,1,1020.04,61.4,0
"2021-05-26 07:57:39+00",11.5,13.5,,61.4,-311,-425,-2,1019.93,61.4,0
"2021-05-26 08:02:39+00",10.1,12.1,,61.5,-257,-384,13,1019.93,61.5,0
"2021-05-26 08:07:39+00",12.1,14.1,,61.5,-291,-469,-7,1019.94,61.6,0
"2021-05-26 08:12:39+00",10.5,11.5,,61.6,-253,-406,16,1019.82,61.6,0
"2021-05-26 08:17:39+00",10.5,12.5,,61.8,-277,-381,20,1019.81,61.8,0
"2021-05-26 08:22:39+00",10.8,14.8,,61.9,-229,-439,-2,1019.81,61.9,0
"2021-05-26 08:27:39+00",9.3,12.3,,62,-237,-359,27,1019.83,62,0
"2021-05-26 08:32:39+00",10.4,12.4,,62,-256,-400,8,1019.82,62,0
"2021-05-26 08:37:39+00",11.3,13.3,,62,-241,-442,-1,1019.76,62,0
"2021-05-26 08:42:39+00",11.3,12.3,,62,-278,-419,-6,1019.74,62.1,0
"2021-05-26 08:47:39+00",9.9,11.9,,62.1,-258,-362,4,1019.65,62.1,0
"2021-05-26 08:52:39+00",8.8,10.8,,62.2,-259,-310,28,1019.65,62.2,0
"2021-05-26 08:57:39+00",12.8,14.8,,62.4,-384,-410,-1,1019.66,62.3,0
"2021-05-26 09:02:39+00",11.8,14.8,,62.4,-324,-429,16,1019.55,62.5,0
"2021-05-26 09:07:39+00",12.2,14.2,,62.5,-366,-416,1,1019.47,62.4,0
"2021-05-26 09:12:39+00",9.5,10.5,,62.5,-254,-348,9,1019.47,62.5,0
"2021-05-26 09:17:39+00",8.4,9.4,,62.5,-238,-293,25,1019.48,62.5,0
"2021-05-26 09:22:39+00",11.2,13.2,,62.4,-224,-446,-11,1019.43,62.4,0
"2021-05-26 09:27:39+00",9.3,10.3,,62.5,-255,-347,22,1019.42,62.5,0
"2021-05-26 09:32:39+00",9.1,10.1,,62.6,-243,-339,9,1019.39,62.6,0
"2021-05-26 09:37:39+00",10.7,11.7,,62.6,-306,-350,-13,1019.22,62.6,0
"2021-05-26 09:42:39+00",7.7,8.7,,62.8,-209,-279,19,1019.21,62.7,0
"2021-05-26 09:47:39+00",9.0,11.0,,62.8,-221,-338,5,1019.1,62.8,0
"2021-05-26 09:52:39+00",8.3,10.3,,63,-196,-321,0,1019.12,63,0
"2021-05-26 09:57:39+00",8.0,9.0,,63.1,-206,-299,11,1019.16,63.1,0
"2021-05-26 10:02:39+00",9.7,10.7,,63.2,-290,-307,11,1019.24,63.2,0
"2021-05-26 10:07:39+00",6.9,7.9,,63.1,-122,-269,-4,1019.15,63.1,0
"2021-05-26 10:12:39+00",6.3,7.3,,62.9,-136,-243,-2,1019.24,63,0
"2021-05-26 10:17:39+00",8.7,10.7,,63.2,-236,-316,6,1019.19,63.2,0
"2021-05-26 10:22:39+00",8.6,9.6,,63.4,-215,-327,5,1019.18,63.4,0
"2021-05-26 10:27:39+00",9.1,11.1,,63.5,-208,-349,3,1019.2,63.5,0
"2021-05-26 10:32:39+00",8.6,10.6,,63.6,-244,-300,10,1019.1,63.7,0
"2021-05-26 10:37:39+00",8.2,9.2,,63.7,-175,-319,2,1019.18,63.8,0
"2021-05-26 10:42:39+00",8.5,9.5,,63.8,-245,-294,15,1019.18,63.9,0
"2021-05-26 10:47:39+00",9.2,10.2,,63.8,-229,-345,-5,1019.17,64,0
"2021-05-26 10:52:39+00",9.1,11.1,,63.9,-198,-369,-7,1019.08,64.1,0
"2021-05-26 10:57:39+00",10.2,11.2,,64,-183,-411,-10,1019.01,64.3,0
"2021-05-26 11:02:39+00",9.4,11.4,,64.1,-187,-372,5,1019.15,64.4,0
"2021-05-26 11:07:39+00",10.1,12.1,,64.2,-200,-393,4,1019.09,64.5,0
"2021-05-26 11:12:39+00",10.7,12.7,,64.2,-199,-425,-5,1019.21,64.6,0
"2021-05-26 11:17:39+00",8.2,10.2,,64.1,-106,-338,2,1019.12,64.5,0
"2021-05-26 11:22:39+00",8.2,11.2,,64,-78,-342,-6,1019.1,64.4,0
"2021-05-26 11:27:39+00",9.3,12.3,,63.8,-112,-388,3,1019.04,64.4,0
"2021-05-26 11:32:39+00",10.7,13.7,,63.9,-143,-453,-2,1019.13,64.4,0
"2021-05-26 11:37:39+00",11.2,12.2,,63.9,-181,-454,-5,1019.03,64.4,0
"2021-05-26 11:42:39+00",10.0,12.0,,64.2,-190,-409,5,1019.05,64.6,0
"2021-05-26 11:47:39+00",11.6,13.6,,64.2,-289,-453,-2,1019.06,64.7,0
"2021-05-26 11:52:39+00",11.3,14.3,,64.4,-301,-430,28,1019.08,65,0
"2021-05-26 11:57:39+00",12.3,14.3,,64.4,-295,-473,-6,1018.99,65,0
"2021-05-26 12:02:39+00",13.3,15.3,,64.4,-300,-525,8,1018.99,65,0
"2021-05-26 12:07:39+00",11.6,13.6,,64.4,-293,-429,14,1018.94,65,0
"2021-05-26 12:12:39+00",13.4,16.4,,64.3,-380,-482,13,1018.9,65,0
"2021-05-26 12:17:39+00",12.0,14.0,,64.4,-328,-453,4,1018.86,65,0
"2021-05-26 12:22:39+00",12.2,15.2,,64.6,-356,-440,34,1018.9,65.3,0
"2021-05-26 12:27:39+00",13.1,15.1,,64.8,-366,-485,28,1018.8,65.5,0
"2021-05-26 12:32:39+00",12.8,14.8,,64.8,-357,-463,30,1018.75,65.7,0
"2021-05-26 12:37:39+00",14.1,17.1,,65,-398,-508,3,1018.74,65.9,0
"2021-05-26 12:42:39+00",14.4,15.4,,65.1,-397,-535,8,1018.7,66.2,0
"2021-05-26 12:47:39+00",14.3,16.3,,65,-421,-485,18,1018.7,66.2,0
"2021-05-26 12:52:39+00",13.5,16.5,,65.1,-404,-462,17,1018.72,66.2,0
"2021-05-26 12:57:39+00",13.1,16.1,,65,-438,-393,36,1018.77,66.2,0
"2021-05-26 13:02:39+00",13.0,15.0,,65,-447,-369,25,1018.84,66.2,0
"2021-05-26 13:07:39+00",13.4,15.4,,64.8,-454,-380,14,1018.88,66.1,0
"2021-05-26 13:12:39+00",12.2,14.2,,64.7,-408,-351,13,1018.91,66,0
"2021-05-26 13:17:39+00",10.5,11.5,,64.7,-345,-323,34,1018.87,66,0
"2021-05-26 13:22:39+00",12.2,14.2,,64.6,-364,-391,-7,1018.75,66,0
"2021-05-26 13:27:39+00",11.5,12.5,,64.9,-324,-423,-2,1018.75,66.1,0
"2021-05-26 13:32:39+00",10.3,12.3,,65.1,-270,-393,27,1018.64,66.3,0
"2021-05-26 13:37:39+00",12.1,14.1,,65.5,-232,-491,8,1018.56,66.7,0
"2021-05-26 13:42:39+00",13.2,15.2,,65.7,-277,-517,-16,1018.44,67.4,0
"2021-05-26 13:47:39+00",14.3,16.3,,66.5,-279,-570,-15,1018.43,68.4,0
"2021-05-26 13:52:39+00",12.2,14.2,,66.9,-286,-482,22,1018.25,68.7,0
"2021-05-26 13:57:39+00",13.3,16.3,,67.5,-242,-541,-3,1018.28,69.5,0
"2021-05-26 14:02:39+00",12.7,14.7,,68,-266,-514,35,1018.22,70.1,0
"2021-05-26 14:07:39+00",13.5,16.5,,68.2,-246,-552,3,1018.18,70.3,0
"2021-05-26 14:12:39+00",15.4,17.4,,68.4,-253,-616,-17,1018.09,70.7,0
"2021-05-26 14:17:39+00",14.2,16.2,,68.5,-290,-566,-3,1018.01,70.9,0
"2021-05-26 14:22:39+00",13.1,15.1,,69,-225,-529,-8,1018.11,71.1,0
"2021-05-26 14:27:39+00",15.1,17.1,,69.2,-273,-619,-19,1018.07,71.4,0
"2021-05-26 14:32:39+00",14.8,15.8,,69.7,-285,-597,-26,1018.04,72.1,0
"2021-05-26 14:37:39+00",14.2,17.2,,69.9,-280,-570,3,1018.01,72.4,0
"2021-05-26 14:42:39+00",14.3,17.3,,70,-279,-578,18,1017.84,72.5,0
"2021-05-26 14:47:39+00",14.4,16.4,,70.3,-295,-576,14,1017.88,72.9,0
"2021-05-26 14:52:39+00",13.3,15.3,,70.3,-310,-540,49,1017.81,72.9,0
"2021-05-26 14:57:39+00",15.3,17.3,,70,-313,-603,-21,1017.74,72.8,0
"2021-05-26 15:02:39+00",14.3,16.3,,70.2,-402,-539,28,1017.77,73,0
"2021-05-26 15:07:39+00",15.0,18.0,,70,-286,-600,-10,1017.64,72.8,0
"2021-05-26 15:12:39+00",13.4,15.4,,70,-245,-551,16,1017.59,72.2,0
"2021-05-26 15:17:39+00",14.2,17.2,,70.2,-299,-571,32,1017.57,72.7,0
"2021-05-26 15:22:39+00",15.8,18.8,,70.1,-273,-654,2,1017.55,72.8,0
"2021-05-26 15:27:39+00",14.1,18.1,,70.6,-245,-575,9,1017.58,73.1,0
"2021-05-26 15:32:39+00",13.5,15.5,,70.4,-248,-549,4,1017.5,72.9,0
"2021-05-26 15:37:39+00",16.4,19.4,,70.7,-351,-656,-18,1017.38,73.4,0
"2021-05-26 15:42:39+00",17.4,20.4,,70.7,-300,-699,-18,1017.33,73.4,0
"2021-05-26 15:47:39+00",13.6,17.6,,71.5,-247,-568,13,1017.36,73.9,0
"2021-05-26 15:52:39+00",15.0,17.0,,71.5,-222,-624,-8,1017.2,74.1,0
"2021-05-26 15:57:39+00",15.4,17.4,,71.6,-286,-620,-8,1017.15,74.2,0
"2021-05-26 16:02:39+00",15.5,18.5,,71.7,-169,-647,-6,1016.98,74.1,0
"2021-05-26 16:07:39+00",15.7,20.7,,71.6,-209,-662,0,1016.93,74.1,0
"2021-05-26 16:12:39+00",16.2,20.2,,71.9,-220,-677,-11,1016.85,74.5,0
"2021-05-26 16:17:39+00",17.2,21.2,,72.2,-248,-728,-13,1016.78,74.8,0
"2021-05-26 16:22:39+00",18.9,20.9,,71.5,-398,-765,3,1016.76,74.5,0
"2021-05-26 16:27:39+00",18.0,22.0,,71.8,-309,-743,-16,1016.64,74.4,0
"2021-05-26 16:32:39+00",18.7,22.7,,72,-301,-767,-1,1016.57,74.5,0
"2021-05-26 16:37:39+00",19.4,22.4,,71.8,-256,-805,-19,1016.46,74.4,0
"2021-05-26 16:42:39+00",19.5,23.5,,71.8,-322,-813,0,1016.6,74.4,0
"2021-05-26 16:47:39+00",18.1,21.1,,71.7,-394,-729,22,1016.6,74.4,0
"2021-05-26 16:52:39+00",17.8,20.8,,72,-353,-718,17,1016.51,74.5,0
"2021-05-26 16:57:39+00",18.8,22.8,,71.5,-376,-762,-6,1016.38,74.2,0
"2021-05-26 17:02:39+00",17.1,22.1,,72.1,-244,-724,-5,1016.42,74.5,0
"2021-05-26 17:07:39+00",20.0,22.0,,71.4,-369,-808,-2,1016.3,74.2,0
"2021-05-26 17:12:39+00",18.5,22.5,,71.5,-325,-750,3,1016.27,74.3,0
"2021-05-26 17:17:39+00",19.8,24.8,,71.9,-442,-769,16,1016.33,74.5,0
"2021-05-26 17:22:39+00",18.8,24.8,,71.8,-391,-750,35,1016.3,74.6,0
"2021-05-26 17:27:39+00",17.6,20.6,,72.3,-330,-719,15,1016.1,74.7,0
"2021-05-26 17:32:39+00",18.9,21.9,,71.8,-342,-765,-2,1015.93,74.5,0
"2021-05-26 17:37:39+00",19.7,22.7,,72.3,-330,-792,1,1015.85,74.8,0
"2021-05-26 17:42:39+00",20.2,23.2,,72.6,-300,-824,-8,1015.72,75,0
"2021-05-26 17:47:39+00",14.3,18.3,,73.1,-242,-619,27,1015.85,75.4,0
"2021-05-26 17:52:39+00",20.6,22.6,,72.4,-332,-844,-16,1015.76,75.2,0
"2021-05-26 17:57:39+00",21.2,25.2,,71.8,-366,-851,-22,1015.82,74.6,0
"2021-05-26 18:02:39+00",19.4,22.4,,71.2,-439,-788,-3,1015.7,74.1,0
"2021-05-26 18:07:39+00",18.5,22.5,,71.5,-320,-744,10,1015.51,74.1,0
"2021-05-26 18:12:39+00",17.7,20.7,,71.5,-354,-709,4,1015.5,74.2,0
"2021-05-26 18:17:39+00",18.2,21.2,,71.5,-350,-737,-4,1015.37,74.2,0
"2021-05-26 18:22:39+00",18.6,22.6,,71.5,-280,-756,3,1015.28,74,0
"2021-05-26 18:27:39+00",21.0,25.0,,71.5,-404,-849,-3,1015.21,74.2,0
"2021-05-26 18:32:39+00",19.7,22.7,,71.7,-361,-799,-1,1015.17,74.2,0
"2021-05-26 18:37:39+00",22.2,24.2,,71.7,-385,-915,-31,1014.98,74.2,0
"2021-05-26 18:42:39+00",19.7,23.7,,72,-322,-802,8,1014.99,74.3,0
"2021-05-26 18:47:39+00",20.8,23.8,,71.7,-272,-878,-27,1014.86,74.2,0
"2021-05-26 18:52:39+00",19.0,22.0,,72,-289,-777,-11,1014.83,74.3,0
"2021-05-26 18:57:39+00",16.5,20.5,,72,-248,-683,3,1014.74,74.3,0
"2021-05-26 19:02:39+00",17.5,21.5,,72.3,-329,-720,9,1014.61,74.5,0
"2021-05-26 19:07:39+00",20.6,22.6,,72.4,-350,-845,-21,1014.46,74.7,0
"2021-05-26 19:12:39+00",17.8,19.8,,73,-331,-724,9,1014.47,75.2,0
"2021-05-26 19:17:39+00",19.0,23.0,,73.1,-258,-791,-5,1014.3,75.2,0
"2021-05-26 19:22:39+00",21.6,25.6,,73.1,-266,-909,-33,1014.19,75.3,0
"2021-05-26 19:27:39+00",22.1,24.1,,73.4,-317,-906,-39,1014.06,75.4,0
"2021-05-26 19:32:39+00",24.7,26.7,,73,-377,-1009,-27,1013.96,75.2,0
"2021-05-26 19:37:39+00",21.3,25.3,,73.1,-343,-873,3,1013.99,75.4,0
"2021-05-26 19:42:39+00",21.1,25.1,,72.7,-322,-880,6,1013.83,75,0
"2021-05-26 19:47:39+00",19.9,23.9,,72.8,-289,-822,4,1013.71,74.9,0
"2021-05-26 19:52:39+00",21.8,27.8,,72.9,-283,-932,-29,1013.58,74.9,0
"2021-05-26 19:57:39+00",18.2,22.2,,73.3,-266,-763,7,1013.6,75.1,0
"2021-05-26 20:02:39+00",24.0,31.0,,72.9,-342,-992,-7,1013.41,75,0
"2021-05-26 20:07:39+00",21.2,24.2,,72.6,-316,-890,11,1013.51,74.7,0
"2021-05-26 20:12:39+00",22.0,25.0,,72.8,-404,-891,8,1013.42,74.8,0
"2021-05-26 20:17:39+00",21.2,24.2,,73.1,-416,-868,21,1013.42,75.1,0
"2021-05-26 20:22:39+00",23.2,26.2,,72.8,-397,-954,0,1013.23,75,0
"2021-05-26 20:27:39+00",22.8,25.8,,72.3,-489,-909,9,1013.19,74.6,0
"2021-05-26 20:32:39+00",24.3,27.3,,72.2,-462,-978,-5,1013.18,74.5,0
"2021-05-26 20:37:39+00",21.6,25.6,,72.6,-394,-899,4,1013.28,74.5,0
"2021-05-26 20:42:39+00",22.2,26.2,,72.1,-440,-888,21,1013.26,74.1,0
"2021-05-26 20:47:39+00",22.9,24.9,,71.8,-459,-919,-10,1013.22,73.9,0
"2021-05-26 20:52:39+00",20.4,24.4,,71.9,-467,-801,24,1013.17,73.8,0
"2021-05-26 20:57:39+00",22.9,24.9,,71.9,-422,-917,-19,1013.07,74,0
"2021-05-26 21:02:39+00",21.1,26.1,,72.1,-427,-860,-4,1013.07,74,0
"2021-05-26 21:07:39+00",17.9,20.9,,72.3,-348,-733,3,1013.06,74.2,0
"2021-05-26 21:12:39+00",16.9,20.9,,72.6,-316,-688,35,1012.99,74.3,0
"2021-05-26 21:17:39+00",20.8,24.8,,72,-365,-870,-8,1012.88,73.8,0
"2021-05-26 21:22:39+00",22.1,24.1,,71.9,-353,-904,-16,1012.88,73.7,0
"2021-05-26 21:27:39+00",18.2,21.2,,72.2,-343,-749,-9,1012.83,73.8,0
"2021-05-26 21:32:39+00",18.7,22.7,,72.2,-311,-762,-4,1012.7,73.8,0
"2021-05-26 21:37:39+00",17.7,21.7,,72.1,-273,-734,-9,1012.7,73.7,0
"2021-05-26 21:42:39+00",18.8,23.8,,72,-260,-789,-13,1012.64,73.6,0
"2021-05-26 21:47:39+00",19.3,23.3,,71.8,-300,-780,-5,1012.69,73.4,0
"2021-05-26 21:52:39+00",17.8,20.8,,71.9,-252,-732,-9,1012.73,73.4,0
"2021-05-26 21:57:39+00",17.3,21.3,,71.8,-255,-723,6,1012.62,73.2,0
"2021-05-26 22:02:39+00",17.2,20.2,,71.8,-219,-729,-2,1012.76,73.1,0
"2021-05-26 22:07:39+00",17.2,21.2,,71.7,-296,-703,2,1012.77,73,0
"2021-05-26 22:12:39+00",16.4,20.4,,71.8,-275,-684,-9,1012.72,73.1,0
"2021-05-26 22:17:39+00",15.7,21.7,,72,-302,-613,-10,1012.88,73.3,0
"2021-05-26 22:22:39+00",17.6,25.6,,72.2,-471,-654,12,1013,73.5,0
"2021-05-26 22:27:39+00",21.0,25.0,,71.5,-611,-784,30,1013.1,73.1,0
"2021-05-26 22:32:39+00",20.0,25.0,,71,-501,-786,8,1012.95,72.4,0
"2021-05-26 22:37:39+00",20.6,24.6,,70.8,-511,-799,23,1012.93,71.9,0
"2021-05-26 22:42:39+00",21.0,24.0,,70.8,-515,-837,15,1012.84,71.8,0
"2021-05-26 22:47:39+00",20.3,24.3,,70.7,-415,-799,-15,1012.71,71.7,0
"2021-05-26 22:52:39+00",19.0,23.0,,70.5,-411,-757,23,1012.64,71.1,0
"2021-05-26 22:57:39+00",19.7,23.7,,70.3,-465,-787,6,1012.76,70.6,0
"2021-05-26 23:02:39+00",16.7,19.7,,70.2,-368,-667,2,1012.63,70.3,0
"2021-05-26 23:07:39+00",17.8,21.8,,70.2,-436,-712,5,1012.56,70.2,0
"2021-05-26 23:12:39+00",20.6,24.6,,70.2,-505,-828,2,1012.54,70.2,0
"2021-05-26 23:17:39+00",20.9,23.9,,70.1,-458,-839,-12,1012.4,70,0
"2021-05-26 23:22:39+00",20.1,24.1,,70,-504,-789,0,1012.45,70,0
"2021-05-26 23:27:39+00",21.5,24.5,,69.9,-507,-839,8,1012.57,69.9,0
"2021-05-26 23:32:39+00",20.4,23.4,,69.8,-499,-794,6,1012.5,69.8,0
"2021-05-26 23:37:39+00",18.4,20.4,,69.7,-473,-701,1,1012.6,69.7,0
"2021-05-26 23:42:39+00",19.0,23.0,,69.8,-512,-714,26,1012.63,69.7,0
"2021-05-26 23:47:39+00",19.7,21.7,,69.8,-503,-762,4,1012.65,69.7,0
"2021-05-26 23:52:39+00",19.7,22.7,,69.8,-486,-757,13,1012.64,69.6,0
"2021-05-26 23:57:39+00",19.4,22.4,,69.8,-533,-747,6,1012.71,69.6,0
